Home   Weather   Mettmann   Past weeks

Flag for Germany Past Weather in Mettmann, North Rhine-Westphalia, Germany — Yesterday and Last 2 Weeks

Now
77 °F

Scattered clouds.


Feels Like: 79 °F
Forecast: 60 / 69 °F
Wind: 12 mph from Southwest

Location: Duesseldorf

Current Time: Jul 22, 2017 at 12:59:51 pm

Latest Report: Jul 22, 2017 at 12:20 pm


Visibility: N/A

Pressure: 29.89 "Hg

Humidity: 51%

Dew Point: 57 °F

Location of MettmannLocation

Past Weather in Mettmann — Graph

°F

Mettmann Temperature Yesterday

Maximum temperature yesterday: 77 °F (at 4:20 pm)
Minimum temperature yesterday: 52 °F (at 5:20 am)
Average temperature yesterday: 66 °F

High & Low Weather Summary for the Past Weeks

 TemperatureHumidityPressure
High90 °F (Jul 19, 1:50 pm)100% (Jul 8, 3:50 am)30.24 "Hg (Jul 8, 3:50 am)
Low46 °F (Jul 13, 4:20 am)34% (Jul 10, 2:50 pm)29.68 "Hg (Jul 12, 12:58 pm)
Average68 °F68%29.98 "Hg
* Reported Jul 7 11:20 am — Jul 22 11:20 am, Mettmann. Weather by CustomWeather, © 2017

Note: Actual official high and low records may vary slightly from our data, if they occured in-between our weather recording intervals... More about our weather records

Advertising

Mettmann Weather History for the Previous 24 Hours

Scroll right to see more
 ConditionsComfort  
Time TempWeatherWind HumidityBarometerVisibility
11:20 am
Sat, Jul 22
75 °FScattered clouds.12 mph50%29.89 "HgN/A
10:50 am75 °FPassing clouds.8 mph57%29.86 "HgN/A
10:20 am75 °FPassing clouds.8 mph57%29.89 "HgN/A
9:50 am73 °FPassing clouds.8 mph61%29.89 "HgN/A
9:20 am72 °FPassing clouds.7 mph61%29.86 "HgN/A
8:50 am72 °FPassing clouds.7 mph69%29.86 "HgN/A
8:20 am70 °FScattered clouds.9 mph73%29.86 "HgN/A
7:50 am68 °FPassing clouds.8 mph78%29.86 "HgN/A
7:20 am66 °FSunny.7 mph83%29.86 "Hg10 mi
6:50 am64 °FSunny.7 mph88%29.86 "Hg10 mi
6:20 am66 °FPassing clouds.9 mph83%29.86 "HgN/A
5:20 am66 °FPassing clouds.10 mph83%29.83 "HgN/A
4:50 am66 °FSprinkles. Partly cloudy.13 mph83%29.83 "HgN/A
4:20 am68 °FSprinkles. Partly cloudy.14 mph73%29.83 "HgN/A
3:50 am68 °FSprinkles. Partly cloudy.14 mph73%29.83 "HgN/A
3:20 am66 °FSprinkles. Passing clouds.1 mph78%29.83 "HgN/A
2:50 am66 °FPartly cloudy.1 mph73%29.83 "HgN/A
2:20 am66 °FClear.2 mph73%29.83 "Hg10 mi
1:50 am66 °FClear.2 mph73%29.83 "Hg10 mi
12:50 am66 °FClear.2 mph73%29.83 "Hg10 mi
12:20 am68 °FClear.5 mph64%29.83 "Hg10 mi
11:50 pm
Fri, Jul 21
68 °FClear.5 mph64%29.83 "Hg10 mi
11:20 pm68 °FClear.5 mph64%29.83 "Hg10 mi
10:50 pm66 °FClear.5 mph68%29.83 "Hg10 mi
10:20 pm68 °FClear.5 mph64%29.83 "Hg10 mi
9:50 pm70 °FClear.7 mph60%29.83 "Hg10 mi
9:20 pm72 °FSunny.7 mph57%29.83 "Hg10 mi
8:50 pm75 °FPassing clouds.7 mph47%29.83 "HgN/A
8:20 pm75 °FPassing clouds.7 mph47%29.83 "HgN/A
7:50 pm77 °FPassing clouds.8 mph42%29.83 "HgN/A
7:20 pm77 °FPassing clouds.8 mph42%29.83 "HgN/A
6:50 pm77 °FPassing clouds.7 mph42%29.83 "HgN/A
6:20 pm77 °FPassing clouds.7 mph42%29.86 "HgN/A
5:50 pm77 °FSunny.6 mph42%29.86 "Hg10 mi
5:20 pm77 °FSunny.3 mph39%29.86 "Hg10 mi
4:20 pm77 °FPassing clouds.7 mph39%29.89 "HgN/A
3:50 pm75 °FSunny.5 mph41%29.92 "Hg10 mi
2:50 pm73 °FPassing clouds.8 mph41%29.92 "HgN/A
2:20 pm73 °FPassing clouds.7 mph41%29.95 "HgN/A
1:50 pm73 °FSunny.7 mph41%29.95 "Hg10 mi
12:50 pm70 °FSunny.5 mph43%29.95 "Hg10 mi
12:20 pm70 °FPassing clouds.7 mph43%29.98 "HgN/A
Weather by CustomWeather, © 2017

See weather overviewHow to use our weather pages